Weather History for PAOR - May, 2013

Change the Weather History Date:

Saturday, May 4, 2013

  Actual Average Record
Temperature  
Mean Temperature 30 °F -  
Max Temperature 37 °F 51 °F 68 °F (2014)
Min Temperature 24 °F 27 °F 12 °F (1965)
Degree Days  
Heating Degree Days 34    
Moisture  
Dew Point 26 °F    
Average Humidity 87    
Maximum Humidity 96    
Minimum Humidity 80    
Precipitation  
Precipitation 0.45 in - - ()
Snow  
Snow 0.00 in - - ()
Snow Depth 13.00 in    
Sea Level Pressure  
Sea Level Pressure 29.76 in    
Wind  
Wind Speed 8 mph (NW)    
Max Wind Speed 16 mph    
Max Gust Speed 26 mph    
Visibility 2 miles    
Events Fog , Rain , Snow    
Averages and records for this station are not official NWS values.
T = Trace of Precipitation, MM = Missing Value Source: NWS Daily Summary

Daily Weather History Graph

Daily Weather History Graph

Search for Another Location

Airport or City:

Trip Planner

Search our weather history database for the weather conditions in past years. The results will help you decide how hot, cold, wet, or windy it might be!

Date:

Astronomy

May. 04, 2013 Rise Set
Actual Time 4:57 AM AKDT 9:53 PM AKDT
Civil Twilight 3:50 AM AKDT 11:02 PM AKDT
Nautical Twilight 1:56 AM AKDT 12:51 AM AKDT
Astronomical Twilight Sun does not set Sun does not set
Moon 3:42 AM AKDT (5/4) 3:26 PM AKDT (5/4)
Length of Visible Light 19h 11m
Length of Day
16h 56m
Waning Crescent, 25% of the Moon is Illuminated
May 4
Waning Crescent
May 9
New
May 17
First Quarter
May 24
Full
May 31
Last Quarter

Hourly Weather History & Observations

Time (AKDT) Temp. Windchill Dew Point Humidity Pressure Visibility Wind Dir Wind Speed Gust Speed Precip Events Conditions
12:53 AM 36.0 °F - 32.0 °F 86% 29.85 in 10.0 mi Calm Calm - N/A   Overcast
1:53 AM 37.0 °F - 32.0 °F 82% 29.85 in 10.0 mi Calm Calm - N/A   Overcast
2:53 AM 35.1 °F - 30.9 °F 85% 29.84 in 10.0 mi Calm Calm - N/A   Overcast
3:53 AM 35.1 °F - 32.0 °F 89% 29.83 in 10.0 mi Calm Calm - N/A   Overcast
4:53 AM 34.0 °F - 32.0 °F 92% 29.82 in 10.0 mi Calm Calm - 0.00 in Rain Light Rain
5:21 AM 35.6 °F 30.7 °F 33.8 °F 93% 29.75 in 7.0 mi NNW 5.8 mph - 0.00 in Rain Light Rain
5:53 AM 34.0 °F 28.0 °F 32.0 °F 92% 29.81 in 5.0 mi NNW 6.9 mph - 0.01 in Rain Light Rain
6:53 AM 30.9 °F 22.2 °F 30.0 °F 96% 29.80 in 5.0 mi NW 10.4 mph 19.6 mph 0.03 in   Overcast
7:08 AM 30.2 °F 20.8 °F 28.4 °F 93% 29.73 in 5.0 mi NNW 11.5 mph 18.4 mph 0.00 in Rain Light Freezing Rain
7:48 AM 30.2 °F 20.8 °F 28.4 °F 93% 29.72 in 5.0 mi NNW 11.5 mph 17.3 mph 0.01 in Snow Light Snow
7:53 AM 30.0 °F 20.0 °F 28.0 °F 92% 29.79 in 2.0 mi NW 12.7 mph 19.6 mph 0.01 in Snow Light Snow
7:57 AM 30.2 °F 22.6 °F 28.4 °F 93% 29.72 in 0.8 mi NW 8.1 mph 19.6 mph 0.01 in Snow Light Snow
8:37 AM 28.4 °F 18.0 °F 26.6 °F 93% 29.70 in 0.5 mi NW 12.7 mph 19.6 mph 0.04 in Fog , Snow Light Snow
8:53 AM 28.9 °F 19.2 °F 27.0 °F 92% 29.78 in 0.8 mi NW 11.5 mph - 0.05 in Snow Light Snow
9:30 AM 28.4 °F 18.0 °F 26.6 °F 93% 29.69 in 0.5 mi NW 12.7 mph 20.7 mph 0.02 in Fog , Snow Snow
9:53 AM 28.0 °F 17.0 °F 26.1 °F 92% 29.77 in 0.2 mi NW 13.8 mph 20.7 mph 0.04 in Fog , Snow Snow
10:53 AM 28.0 °F 19.3 °F 25.0 °F 88% 29.72 in 0.5 mi NW 9.2 mph 19.6 mph 0.05 in Fog , Snow Snow
11:53 AM 27.0 °F 16.7 °F 25.0 °F 92% 29.77 in 0.2 mi NW 11.5 mph 20.7 mph 0.04 in Fog , Snow Snow
12:37 PM 26.6 °F 16.2 °F 24.8 °F 93% 29.67 in 0.2 mi NW 11.5 mph - 0.07 in Fog , Snow Snow
12:53 PM 28.0 °F 17.0 °F 24.1 °F 85% 29.76 in 0.5 mi NW 13.8 mph 21.9 mph 0.08 in Fog , Snow Light Snow
1:25 PM 28.4 °F 18.0 °F 24.8 °F 86% 29.66 in 1.0 mi NNW 12.7 mph 24.2 mph 0.00 in Snow Light Snow
1:53 PM 30.0 °F 19.5 °F 26.1 °F 85% 29.75 in 1.2 mi NW 13.8 mph 24.2 mph 0.00 in Snow Light Snow
2:10 PM 32.0 °F 24.2 °F 26.6 °F 80% 29.68 in 2.5 mi NW 9.2 mph 19.6 mph 0.00 in Snow Light Snow
2:18 PM 30.2 °F 20.2 °F 26.6 °F 86% 29.68 in 3.0 mi NW 12.7 mph 20.7 mph 0.00 in Snow Light Snow
2:20 PM 30.2 °F 20.8 °F 26.6 °F 86% 29.68 in 2.5 mi NW 11.5 mph 20.7 mph 0.00 in Snow Light Snow
2:42 PM 30.2 °F 19.3 °F 26.6 °F 86% 29.67 in 2.0 mi NW 15.0 mph 25.3 mph 0.00 in Snow Light Snow
2:53 PM 30.9 °F 20.2 °F 26.1 °F 82% 29.75 in 2.5 mi NW 15.0 mph 23.0 mph 0.01 in Snow Light Snow
3:14 PM 30.2 °F 18.9 °F 24.8 °F 80% 29.68 in 3.0 mi NNW 16.1 mph 26.5 mph 0.00 in Snow Light Snow
3:33 PM 30.2 °F 20.8 °F 24.8 °F 80% 29.69 in 4.0 mi NW 11.5 mph 21.9 mph 0.00 in Snow Light Snow
3:40 PM 28.4 °F 17.5 °F 24.8 °F 86% 29.69 in 1.8 mi NNW 13.8 mph 23.0 mph 0.00 in Snow Light Snow
3:46 PM 28.4 °F 17.5 °F 24.8 °F 86% 29.69 in 0.8 mi NW 13.8 mph 20.7 mph 0.00 in Snow Light Snow
3:53 PM 28.9 °F 17.7 °F 25.0 °F 85% 29.77 in 0.8 mi NNW 15.0 mph 23.0 mph 0.00 in Snow Light Snow
4:10 PM 28.4 °F 17.5 °F 24.8 °F 86% 29.69 in 0.5 mi NW 13.8 mph 21.9 mph 0.00 in Fog , Snow Snow
4:31 PM 28.4 °F 18.5 °F 24.8 °F 86% 29.69 in 0.5 mi NW 11.5 mph 19.6 mph 0.01 in Fog , Snow Snow
4:46 PM 28.4 °F 18.0 °F 24.8 °F 86% 29.70 in 0.5 mi NNW 12.7 mph 23.0 mph 0.01 in Fog , Snow Light Snow
4:53 PM 28.0 °F 18.1 °F 24.1 °F 85% 29.78 in 0.8 mi NW 11.5 mph 20.7 mph 0.01 in Snow Light Snow
5:12 PM 28.4 °F 18.0 °F 24.8 °F 86% 29.70 in 0.5 mi NW 12.7 mph 23.0 mph 0.01 in Fog , Snow Snow
5:53 PM 27.0 °F 16.7 °F 24.1 °F 89% 29.80 in 0.2 mi NW 11.5 mph 23.0 mph 0.03 in Fog , Snow Snow
6:28 PM 26.6 °F 15.2 °F 24.8 °F 93% 29.72 in 0.5 mi NW 13.8 mph - 0.03 in Fog , Snow Snow
6:53 PM 27.0 °F 16.7 °F 24.1 °F 89% 29.82 in 0.5 mi NW 11.5 mph 19.6 mph 0.04 in Fog , Snow Snow
7:53 PM 26.1 °F 15.6 °F 23.0 °F 88% 29.84 in 0.5 mi NW 11.5 mph 21.9 mph 0.02 in Fog , Snow Snow
8:01 PM 26.6 °F 16.2 °F 23.0 °F 86% 29.74 in 0.5 mi NW 11.5 mph 19.6 mph 0.00 in Fog , Snow Snow
8:46 PM 26.6 °F 16.2 °F 23.0 °F 86% 29.75 in 0.5 mi NW 11.5 mph 19.6 mph 0.01 in Fog , Snow Snow
8:53 PM 26.1 °F 15.6 °F 23.0 °F 88% 29.86 in 0.5 mi NW 11.5 mph 18.4 mph 0.01 in Fog , Snow Snow
9:07 PM 26.6 °F 17.5 °F 23.0 °F 86% 29.76 in 0.8 mi NW 9.2 mph - 0.01 in Snow Light Snow
9:14 PM 26.6 °F 16.2 °F 23.0 °F 86% 29.76 in 1.0 mi NW 11.5 mph - 0.01 in Snow Light Snow
9:31 PM 26.6 °F 15.7 °F 23.0 °F 86% 29.77 in 2.0 mi NW 12.7 mph 19.6 mph 0.01 in Snow Light Snow
9:53 PM 26.1 °F 15.0 °F 23.0 °F 88% 29.88 in 2.5 mi WNW 12.7 mph 19.6 mph 0.01 in Snow Light Snow
10:22 PM 26.6 °F 17.5 °F 21.2 °F 80% 29.79 in 1.8 mi NW 9.2 mph 19.6 mph 0.00 in Snow Light Snow
10:38 PM 26.6 °F 16.8 °F 21.2 °F 80% 29.80 in 2.0 mi NW 10.4 mph 18.4 mph 0.00 in Snow Light Snow
10:53 PM 26.1 °F 16.2 °F 21.9 °F 84% 29.91 in 2.0 mi WNW 10.4 mph 19.6 mph 0.00 in Snow Light Snow
11:19 PM 24.8 °F 14.6 °F 21.2 °F 86% 29.82 in 3.0 mi NW 10.4 mph 18.4 mph 0.00 in Snow Light Snow
11:30 PM 24.8 °F 13.4 °F 21.2 °F 86% 29.82 in 1.5 mi NW 12.7 mph 20.7 mph 0.00 in Snow Light Snow
11:53 PM 25.0 °F 13.6 °F 21.9 °F 88% 29.94 in 1.2 mi NW 12.7 mph 17.3 mph 0.01 in Snow Light Snow